Location: Hilton Head Island
(32.2163°N, 80.7526°W)
Time: 06:58:01
(UTC-04:00)

Altair - Pass Details

Date: 18 February 2026
Orbit: 1502 x 1682 km, 47.2° (Epoch: 8 March)

Event Time Altitude Azimuth Distance (km) Brightness Sun altitude
Exits shadow 04:00:25 74° 85° (E) 1,560 7.4 -39.0°
Drops below altitude 10° 04:08:53 10° 54° (NE) 3,710 10.1 -37.3°
Sets 04:11:58 0° 53° (NE) 4,715 10.8 -36.6°
